Miami, FL

3:52 PM EDT on July 24, 2016 (GMT -0400)
Kendall-Tamiami Executive

Weather History for KTMB - February, 2014

Change the Weather History Date:

Friday, February 28, 2014

  Actual Average Record
Temperature  
Mean Temperature 70 °F -  
Max Temperature 77 °F 79 °F 88 °F (2003)
Min Temperature 61 °F 60 °F 45 °F (2002)
Cooling Degree Days 6    
Growing Degree Days 20 (Base 50)    
Moisture  
Dew Point 61 °F    
Average Humidity 81    
Maximum Humidity 100    
Minimum Humidity 48    
Precipitation  
Precipitation 0.01 in - - ()
Sea Level Pressure  
Sea Level Pressure 29.99 in    
Wind  
Wind Speed 7 mph (NNW)    
Max Wind Speed 13 mph    
Max Gust Speed -    
Visibility 9 miles    
Events Rain    
Averages and records for this station are not official NWS values.
T = Trace of Precipitation, MM = Missing Value Source: NWS Daily Summary

Daily Weather History Graph

Daily Weather History Graph

Search for Another Location

Airport or City:

Trip Planner

Search our weather history database for the weather conditions in past years. The results will help you decide how hot, cold, wet, or windy it might be!

Date:

Astronomy

Feb. 28, 2014 Rise Set
Actual Time 6:45 AM EST 6:23 PM EST
Civil Twilight 6:22 AM EST 6:46 PM EST
Nautical Twilight 5:56 AM EST 7:12 PM EST
Astronomical Twilight 5:29 AM EST 7:39 PM EST
Moon 5:58 AM EST (2/28) 5:56 PM EST (2/28)
Length of Visible Light 12h 23m
Length of Day
11h 37m
Waning Crescent, 1% of the Moon is Illuminated
Feb 28
Waning Crescent
Mar 1
New
Mar 8
First Quarter
Mar 16
Full
Mar 23
Last Quarter

Hourly Weather History & Observations

Time (EST) Temp. Dew Point Humidity Pressure Visibility Wind Dir Wind Speed Gust Speed Precip Events Conditions
12:53 AM 66.9 °F - N/A% 29.92 in 10.0 mi North 6.9 mph - N/A   Overcast
1:53 AM 66.0 °F 64.9 °F 96% 29.92 in 10.0 mi NNW 12.7 mph - 0.00 in   Overcast
2:53 AM 66.0 °F 66.0 °F 100% 29.90 in 10.0 mi Calm Calm - 0.00 in   Overcast
3:38 AM 66.9 °F 64.0 °F 90% 29.92 in 10.0 mi NNW 5.8 mph - N/A   Overcast
3:53 AM 66.9 °F 64.9 °F 93% 29.93 in 10.0 mi NW 5.8 mph - N/A   Overcast
4:20 AM 66.9 °F 64.9 °F 93% 29.90 in 7.0 mi Calm Calm - 0.01 in Rain Light Rain
4:46 AM 66.9 °F 64.9 °F 93% 29.91 in 8.0 mi NNW 6.9 mph - 0.01 in   Overcast
4:53 AM 66.9 °F 64.9 °F 93% 29.91 in 9.0 mi North 4.6 mph - 0.01 in   Overcast
5:26 AM 66.0 °F 64.0 °F 93% 29.94 in 6.0 mi North 4.6 mph - N/A   Mostly Cloudy
5:36 AM 66.0 °F 64.0 °F 93% 29.94 in 6.0 mi North 8.1 mph - N/A   Mostly Cloudy
5:53 AM 66.0 °F 63.0 °F 90% 29.96 in 6.0 mi NW 6.9 mph - N/A   Overcast
6:03 AM 66.0 °F 63.0 °F 90% 29.96 in 6.0 mi NNW 8.1 mph - N/A   Overcast
6:21 AM 64.9 °F 63.0 °F 93% 29.96 in 6.0 mi North 6.9 mph - N/A   Scattered Clouds
6:53 AM 64.9 °F 62.1 °F 90% 29.95 in 7.0 mi North 5.8 mph - N/A   Mostly Cloudy
7:24 AM 64.9 °F 62.1 °F 90% 29.98 in 6.0 mi NNW 10.4 mph - 0.00 in   Overcast
7:53 AM 64.9 °F 62.1 °F 90% 29.99 in 7.0 mi NNW 5.8 mph - 0.00 in   Overcast
8:09 AM 64.9 °F 62.1 °F 90% 30.00 in 6.0 mi NNW 8.1 mph - N/A   Overcast
8:53 AM 64.9 °F 62.1 °F 90% 30.03 in 6.0 mi NW 10.4 mph - N/A   Overcast
9:53 AM 64.9 °F 61.0 °F 87% 30.05 in 9.0 mi NW 11.5 mph - N/A   Overcast
10:53 AM 66.9 °F 60.1 °F 79% 30.06 in 10.0 mi NNW 11.5 mph - N/A   Overcast
11:07 AM 66.9 °F 60.1 °F 79% 30.07 in 10.0 mi NNW 11.5 mph - N/A   Mostly Cloudy
11:32 AM 68.0 °F 60.1 °F 76% 30.06 in 10.0 mi NW 10.4 mph - N/A   Mostly Cloudy
11:53 AM 69.1 °F 60.1 °F 73% 30.05 in 10.0 mi NW 10.4 mph - N/A   Mostly Cloudy
12:00 PM 69.1 °F 61.0 °F 75% 30.05 in 10.0 mi NW 10.4 mph - N/A   Scattered Clouds
12:53 PM 71.1 °F 61.0 °F 70% 30.04 in 10.0 mi NW 9.2 mph - N/A   Clear
1:53 PM 73.9 °F 61.0 °F 64% 30.01 in 10.0 mi NW 8.1 mph - N/A   Clear
2:53 PM 73.9 °F 59.0 °F 59% 30.00 in 10.0 mi NW 6.9 mph - N/A   Partly Cloudy
3:53 PM 75.9 °F 57.0 °F 52% 29.99 in 10.0 mi WNW 10.4 mph - N/A   Partly Cloudy
4:53 PM 77.0 °F 55.9 °F 48% 29.99 in 10.0 mi NW 12.7 mph - N/A   Partly Cloudy
5:53 PM 75.0 °F 57.0 °F 53% 30.00 in 10.0 mi NW 5.8 mph - N/A   Partly Cloudy
6:53 PM 70.0 °F 55.9 °F 61% 30.01 in 10.0 mi NNW 3.5 mph - N/A   Clear
7:53 PM 66.0 °F 57.9 °F 75% 30.03 in 10.0 mi West 5.8 mph - N/A   Clear
8:53 PM 64.0 °F 57.9 °F 80% 30.06 in 10.0 mi WNW 5.8 mph - N/A   Clear
9:53 PM 64.9 °F 57.0 °F 75% 30.08 in 10.0 mi North 6.9 mph - N/A   Clear
10:53 PM 64.9 °F 52.0 °F 63% 30.09 in 10.0 mi NNE 4.6 mph - N/A   Clear
11:53 PM 61.0 °F 55.9 °F 83% 30.09 in 10.0 mi NW 4.6 mph - N/A   Clear